Flag for U.S.A. Weather past 2 weeks in Germantown, Maryland, U.S.A.

Now
39 °F

Overcast.


Feels Like: 32 °F
Forecast: 31 / 44 °F
Wind: 12 mph from Southwest

Location: Frederick Municipal Airport

Current Time: Jan 25, 2015 at 7:48:21 AM

Latest Report: Jan 25, 2015 at 6:45 AM


Visibility: 10 mi

Pressure: 29.82 "Hg

Humidity: 61%

Dew point: 27 °F

Location of GermantownLocation

Historic Weather in Germantown — Graph

°F

Germantown temperature yesterday

Maximum temperature yesterday: 43 °F (at 3:45 PM)
Minimum temperature yesterday: 34 °F (at 12:10 AM)
Average temperature yesterday: 36 °F

Past Weeks' High & Low Weather Summary

 TemperatureHumidityPressure
High46 °F (Jan 19, 12:50 PM)100% (Jan 17, 6:45 AM)30.68 "Hg (Jan 17, 6:45 AM)
Low12 °F (Jan 10, 9:35 PM)20% (Jan 10, 3:50 PM)29.49 "Hg (Jan 24, 1:51 PM)
Average31 °F69%30.19 "Hg
* Reported Jan 10 6:45 AM — Jan 25 6:45 AM, Germantown, Weather by CustomWeather, © 2014

Note: Actual official high and low records may vary slightly from our data, if they occured in-between our weather recording intervals... More about our weather records

Advertising

Germantown weather history for previous 24 hours

 ConditionsComfort  
Time TempWeatherWind HumidityBarometerVisibility
6:45 AM
Jan 25
39 °FOvercast.12 mph61%29.82 "Hg10 mi
5:30 AM37 °FOvercast.9 mph70%29.79 "Hg10 mi
5:15 AM37 °FOvercast.9 mph70%29.78 "Hg10 mi
4:55 AM37 °FOvercast.7 mph65%29.77 "Hg10 mi
4:15 AM37 °FMostly cloudy.7 mph65%29.75 "Hg10 mi
3:55 AM37 °FMostly cloudy.6 mph65%29.75 "Hg10 mi
3:10 AM37 °FOvercast.12 mph65%29.74 "Hg10 mi
2:50 AM37 °FOvercast.12 mph65%29.74 "Hg10 mi
2:30 AM37 °FPassing clouds.12 mph65%29.74 "Hg10 mi
2:10 AM37 °FPassing clouds.14 mph65%29.73 "Hg10 mi
1:50 AM37 °FPassing clouds.15 mph65%29.73 "Hg10 mi
1:30 AM37 °FPassing clouds.12 mph65%29.72 "Hg10 mi
1:10 AM37 °FPassing clouds.14 mph65%29.71 "Hg10 mi
12:50 AM37 °FPartly cloudy.12 mph65%29.71 "Hg10 mi
12:30 AM37 °FMostly cloudy.10 mph65%29.70 "Hg10 mi
12:10 AM37 °FPassing clouds.17 mph65%29.70 "Hg10 mi
11:50 PM
Jan 24
37 °FPassing clouds.13 mph65%29.68 "Hg10 mi
11:10 PM37 °FOvercast.8 mph65%29.67 "Hg10 mi
10:10 PM37 °FPassing clouds.15 mph65%29.64 "Hg10 mi
9:50 PM37 °FPassing clouds.14 mph65%29.64 "Hg10 mi
9:10 PM37 °FPassing clouds.13 mph65%29.63 "Hg10 mi
8:50 PM37 °FClear.17 mph60%29.63 "Hg10 mi
8:30 PM37 °FClear.17 mph60%29.62 "Hg10 mi
8:10 PM37 °FClear.21 mph60%29.61 "Hg10 mi
7:50 PM37 °FClear.8 mph60%29.61 "Hg10 mi
6:47 PM39 °FPassing clouds.6 mph48%29.59 "Hg10 mi
5:50 PM39 °FPassing clouds.10 mph48%29.56 "Hg10 mi
4:47 PM43 °FSunny.5 mph49%29.54 "Hg10 mi
3:45 PM43 °FSunny.8 mph66%29.51 "Hg10 mi
2:48 PM39 °FOvercast.7 mph75%29.50 "Hg10 mi
1:51 PM39 °FMostly cloudy.8 mph75%29.49 "Hg10 mi
12:52 PM39 °FLight rain. More clouds than sun.No wind81%29.50 "Hg5 mi
11:59 AM37 °FFog.3 mph81%29.54 "Hg5 mi
10:59 AM37 °FFog.3 mph81%29.58 "Hg5 mi
9:58 AM36 °FMore clouds than sun.5 mph81%29.59 "Hg7 mi
8:45 AM36 °FFog.5 mph81%29.59 "Hg7 mi
7:55 AM36 °FChilly.7 mph81%29.63 "HgN/A
Weather by CustomWeather, © 2014

See weather overviewHow to use our weather pages